Back to catalog

SL-12 R/B(2)

AliveHEO
NORAD 27504·ROCKET BODY·🇷🇺 Russia

Launched Aug 22, 2002 from Baikonur Cosmodrome

Loading…

Next Passes (next 24 hours)

TLE

FreshSource: Space-Track

Epoch: Sep 5, 2026, 17:02 UTC

1 27504U 02039B   26248.71009064 -.00000257  00000-0  00000-0 0  9996
2 27504  22.0967 127.8463 5939673 244.2040  44.4111  2.01848890177184

Track SL-12 R/B(2) in real time with AllMySat

Download on the App Store